34.9°F
Current conditions from King Hill
Updated every 5 minutes
 
  Monday October 20, 2014

Station Historical Data
Daily Summary for January 13, 2011 Units:  Metric    English   Both
« Previous Day
Next Day »
Daily Weekly Monthly Yearly Custom
  High: Low: Average:
Temperature: -7.8 °C -11.6 °C -9.2 °C
Dew Point: -9.6 °C -14.2 °C -12 °C
Humidity: 87% 76% 81%
Wind Speed: 12.9km/h 1.6km/h 5.3km/h
Wind Gust: 27.4km/h - -
Wind- - WNW
Pressure: 1024.9 hPa 1011.4 hPa -
Precipitation: 0 mm    
Historical Graphs
 
 
Tabular Data for January 13, 2011
Time Temperature Dew Point Pressure Wind Wind Speed Wind Gust Humidity Daily Rainfall
00:04 -7.9 °C -9.9 °C 1011.4 hPa North 3.2 km/h 17.7 km/h 86% 0 mm
00:09 -7.9 °C -9.9 °C 1011.4 hPa North 3.2 km/h 17.7 km/h 86% 0 mm
00:14 -7.9 °C -9.9 °C 1011.7 hPa NNE 3.2 km/h 11.3 km/h 86% 0 mm
00:19 -7.9 °C -9.8 °C 1011.7 hPa North 6.4 km/h 16.1 km/h 86% 0 mm
00:24 -7.9 °C -9.8 °C 1011.7 hPa North 1.6 km/h 16.1 km/h 86% 0 mm
00:30 -7.9 °C -9.8 °C 1011.7 hPa North 3.2 km/h 16.1 km/h 86% 0 mm
00:34 -7.9 °C -9.8 °C 1011.7 hPa NNE 4.8 km/h 17.7 km/h 86% 0 mm
00:39 -7.8 °C -9.8 °C 1011.7 hPa North 6.4 km/h 27.4 km/h 86% 0 mm
00:44 -7.8 °C -9.8 °C 1011.7 hPa NNW 3.2 km/h 27.4 km/h 86% 0 mm
00:49 -7.8 °C -9.8 °C 1012.1 hPa NNE 6.4 km/h 24.1 km/h 86% 0 mm
00:54 -7.8 °C -9.8 °C 1012.1 hPa NNE 1.6 km/h 24.1 km/h 86% 0 mm
00:59 -7.8 °C -9.8 °C 1012.1 hPa North 6.4 km/h 22.5 km/h 86% 0 mm
01:04 -7.8 °C -9.8 °C 1012.4 hPa North 4.8 km/h 22.5 km/h 86% 0 mm
01:09 -7.8 °C -9.8 °C 1012.4 hPa NNE 6.4 km/h 17.7 km/h 86% 0 mm
01:14 -7.8 °C -9.8 °C 1012.8 hPa North 4.8 km/h 17.7 km/h 86% 0 mm
01:19 -7.8 °C -9.8 °C 1012.8 hPa North 1.6 km/h 16.1 km/h 86% 0 mm
01:24 -7.8 °C -9.6 °C 1012.8 hPa NNE 4.8 km/h 11.3 km/h 87% 0 mm
01:29 -7.8 °C -9.6 °C 1013.1 hPa NNW 1.6 km/h 11.3 km/h 87% 0 mm
01:34 -7.8 °C -9.6 °C 1013.1 hPa North 1.6 km/h 8 km/h 87% 0 mm
01:39 -7.8 °C -9.6 °C 1013.4 hPa NW 3.2 km/h 8 km/h 87% 0 mm
01:44 -7.8 °C -9.6 °C 1013.4 hPa NW 6.4 km/h 12.9 km/h 87% 0 mm
01:49 -7.8 °C -9.6 °C 1013.4 hPa NNW 1.6 km/h 16.1 km/h 87% 0 mm
01:54 -7.9 °C -9.8 °C 1013.8 hPa NNW 3.2 km/h 16.1 km/h 86% 0 mm
01:59 -7.9 °C -9.9 °C 1013.8 hPa North 3.2 km/h 12.9 km/h 86% 0 mm
02:04 -8 °C -9.9 °C 1013.8 hPa NW 4.8 km/h 12.9 km/h 86% 0 mm
02:09 -8 °C -9.9 °C 1014.1 hPa Calm   9.7 km/h 86% 0 mm
02:14 -8.1 °C -10 °C 1014.1 hPa NNW 3.2 km/h 9.7 km/h 86% 0 mm
02:19 -8.1 °C -10 °C 1014.1 hPa NNE 1.6 km/h 9.7 km/h 86% 0 mm
02:24 -8.1 °C -10.1 °C 1014.4 hPa NNW 4.8 km/h 12.9 km/h 86% 0 mm
02:30 -8.1 °C -10.1 °C 1014.4 hPa NW 3.2 km/h 12.9 km/h 86% 0 mm
02:39 -8.2 °C -10.2 °C 1014.8 hPa NNE 1.6 km/h 14.5 km/h 86% 0 mm
02:44 -8.2 °C -10.2 °C 1014.8 hPa Calm   11.3 km/h 86% 0 mm
02:49 -8.2 °C -10.2 °C 1014.8 hPa NNW 3.2 km/h 8 km/h 86% 0 mm
02:54 -8.3 °C -10.2 °C 1014.8 hPa NW 3.2 km/h 12.9 km/h 86% 0 mm
02:59 -8.3 °C -10.2 °C 1015.1 hPa NW 1.6 km/h 14.5 km/h 86% 0 mm
03:04 -8.3 °C -10.3 °C 1015.1 hPa NNW 6.4 km/h 19.3 km/h 86% 0 mm
03:09 -8.4 °C -10.3 °C 1015.1 hPa North 6.4 km/h 22.5 km/h 86% 0 mm
03:14 -8.4 °C -10.5 °C 1015.1 hPa NNW 3.2 km/h 22.5 km/h 85% 0 mm
03:19 -8.5 °C -10.6 °C 1015.1 hPa NNW 6.4 km/h 16.1 km/h 85% 0 mm
03:24 -8.6 °C -10.6 °C 1015.5 hPa NW 6.4 km/h 16.1 km/h 85% 0 mm
03:29 -8.6 °C -10.6 °C 1015.5 hPa NW 9.7 km/h 19.3 km/h 85% 0 mm
03:34 -8.6 °C -10.7 °C 1015.5 hPa NW 8 km/h 22.5 km/h 85% 0 mm
03:39 -8.6 °C -10.7 °C 1015.5 hPa NNW 4.8 km/h 22.5 km/h 85% 0 mm
03:44 -8.7 °C -10.7 °C 1015.8 hPa NNW 6.4 km/h 19.3 km/h 85% 0 mm
03:49 -8.7 °C -10.7 °C 1015.8 hPa NNW 8 km/h 14.5 km/h 85% 0 mm
03:54 -8.7 °C -10.7 °C 1015.8 hPa NW 6.4 km/h 12.9 km/h 85% 0 mm
03:59 -8.7 °C -10.9 °C 1015.8 hPa NW 9.7 km/h 17.7 km/h 84% 0 mm
04:04 -8.7 °C -10.9 °C 1015.8 hPa NNW 4.8 km/h 17.7 km/h 84% 0 mm
04:09 -8.7 °C -10.9 °C 1015.8 hPa NNW 6.4 km/h 17.7 km/h 84% 0 mm
04:14 -8.8 °C -11 °C 1016.1 hPa NNW 8 km/h 17.7 km/h 84% 0 mm
04:19 -8.8 °C -11 °C 1016.1 hPa NW 8 km/h 19.3 km/h 84% 0 mm
04:24 -8.8 °C -11 °C 1016.1 hPa NNW 3.2 km/h 19.3 km/h 84% 0 mm
04:30 -8.8 °C -10.9 °C 1016.1 hPa NNW 3.2 km/h 11.3 km/h 85% 0 mm
04:39 -8.9 °C -10.9 °C 1016.1 hPa NW 6.4 km/h 16.1 km/h 85% 0 mm
04:44 -8.9 °C -11.2 °C 1016.1 hPa NNW 8 km/h 20.9 km/h 84% 0 mm
04:49 -8.9 °C -11.2 °C 1016.1 hPa NW 6.4 km/h 20.9 km/h 84% 0 mm
04:54 -9 °C -11.2 °C 1016.5 hPa NNW 8 km/h 16.1 km/h 84% 0 mm
04:59 -9 °C -11.2 °C 1016.5 hPa NW 4.8 km/h 16.1 km/h 84% 0 mm
05:04 -9 °C -11.2 °C 1016.5 hPa NW 8 km/h 17.7 km/h 84% 0 mm
05:09 -9.1 °C -11.1 °C 1016.5 hPa NNW 3.2 km/h 17.7 km/h 85% 0 mm
05:14 -9.1 °C -11.1 °C 1016.8 hPa NNW 6.4 km/h 16.1 km/h 85% 0 mm
05:19 -9.1 °C -11.3 °C 1016.8 hPa NW 3.2 km/h 16.1 km/h 84% 0 mm
05:24 -9.1 °C -11.3 °C 1016.8 hPa NNW 1.6 km/h 9.7 km/h 84% 0 mm
05:30 -9.1 °C -11.3 °C 1016.8 hPa NW 6.4 km/h 12.9 km/h 84% 0 mm
05:34 -9.1 °C -11.3 °C 1017.2 hPa NW 8 km/h 12.9 km/h 84% 0 mm
05:39 -9.1 °C -11.3 °C 1017.2 hPa NNW 9.7 km/h 19.3 km/h 84% 0 mm
05:44 -9.1 °C -11.3 °C 1017.2 hPa NNW 6.4 km/h 20.9 km/h 84% 0 mm
05:49 -9.2 °C -11.4 °C 1017.2 hPa NNW 8 km/h 20.9 km/h 84% 0 mm
05:54 -9.2 °C -11.4 °C 1017.5 hPa NW 8 km/h 17.7 km/h 84% 0 mm
05:59 -9.2 °C -11.4 °C 1017.5 hPa NNW 4.8 km/h 17.7 km/h 84% 0 mm
06:04 -9.2 °C -11.4 °C 1017.5 hPa NW 4.8 km/h 17.7 km/h 84% 0 mm
06:09 -9.3 °C -11.5 °C 1017.5 hPa NW 9.7 km/h 17.7 km/h 84% 0 mm
06:14 -9.3 °C -11.5 °C 1017.8 hPa NW 9.7 km/h 16.1 km/h 84% 0 mm
06:19 -9.3 °C -11.3 °C 1017.8 hPa NNW 6.4 km/h 16.1 km/h 85% 0 mm
06:24 -9.3 °C -11.5 °C 1017.8 hPa NW 11.3 km/h 19.3 km/h 84% 0 mm
06:29 -9.3 °C -11.5 °C 1017.8 hPa NW 8 km/h 19.3 km/h 84% 0 mm
06:34 -9.3 °C -11.6 °C 1018.2 hPa NNW 4.8 km/h 19.3 km/h 84% 0 mm
06:39 -9.3 °C -11.6 °C 1018.2 hPa NNW 4.8 km/h 16.1 km/h 84% 0 mm
06:44 -9.3 °C -11.6 °C 1018.2 hPa NW 6.4 km/h 19.3 km/h 84% 0 mm
06:49 -9.3 °C -11.7 °C 1018.2 hPa NNW 9.7 km/h 25.7 km/h 83% 0 mm
06:54 -9.3 °C -11.7 °C 1018.2 hPa NNW 6.4 km/h 25.7 km/h 83% 0 mm
06:59 -9.3 °C -11.7 °C 1018.5 hPa NW 8 km/h 25.7 km/h 83% 0 mm
07:04 -9.4 °C -11.7 °C 1018.5 hPa NW 4.8 km/h 12.9 km/h 83% 0 mm
07:09 -9.4 °C -11.7 °C 1018.5 hPa NNW 8 km/h 22.5 km/h 83% 0 mm
07:14 -9.4 °C -11.7 °C 1018.5 hPa NW 4.8 km/h 22.5 km/h 83% 0 mm
07:19 -9.4 °C -11.8 °C 1018.8 hPa NW 4.8 km/h 12.9 km/h 83% 0 mm
07:24 -9.4 °C -11.8 °C 1018.8 hPa NW 8 km/h 12.9 km/h 83% 0 mm
07:29 -9.4 °C -11.8 °C 1018.8 hPa NW 4.8 km/h 14.5 km/h 83% 0 mm
07:34 -9.4 °C -11.9 °C 1019.2 hPa NW 9.7 km/h 20.9 km/h 82% 0 mm
07:39 -9.4 °C -11.9 °C 1019.2 hPa NW 6.4 km/h 20.9 km/h 82% 0 mm
07:45 -9.4 °C -11.9 °C 1019.2 hPa NW 8 km/h 17.7 km/h 82% 0 mm
07:54 -9.4 °C -11.9 °C 1019.2 hPa NNW 4.8 km/h 12.9 km/h 82% 0 mm
08:04 -9.4 °C -11.9 °C 1019.5 hPa NW 4.8 km/h 9.7 km/h 82% 0 mm
08:09 -9.4 °C -11.9 °C 1019.5 hPa NW 1.6 km/h 9.7 km/h 82% 0 mm
08:14 -9.4 °C -11.9 °C 1019.5 hPa NNW 1.6 km/h 9.7 km/h 82% 0 mm
08:19 -9.4 °C -12.1 °C 1019.9 hPa NW 6.4 km/h 12.9 km/h 81% 0 mm
08:24 -9.4 °C -12.1 °C 1019.9 hPa NW 4.8 km/h 22.5 km/h 81% 0 mm
08:29 -9.4 °C -12.1 °C 1019.9 hPa NNW 8 km/h 22.5 km/h 81% 0 mm
08:34 -9.3 °C -12 °C 1019.9 hPa NW 6.4 km/h 16.1 km/h 81% 0 mm
08:39 -9.3 °C -12 °C 1020.2 hPa NW 8 km/h 16.1 km/h 81% 0 mm
08:44 -9.3 °C -12 °C 1020.2 hPa NW 3.2 km/h 12.9 km/h 81% 0 mm
08:49 -9.3 °C -11.9 °C 1020.2 hPa NNW 3.2 km/h 11.3 km/h 81% 0 mm
08:55 -9.3 °C -11.9 °C 1020.2 hPa NNW 6.4 km/h 12.9 km/h 81% 0 mm
08:59 -9.3 °C -11.9 °C 1020.5 hPa NW 3.2 km/h 12.9 km/h 81% 0 mm
09:04 -9.2 °C -11.9 °C 1020.5 hPa NNW 6.4 km/h 12.9 km/h 81% 0 mm
09:09 -9.2 °C -11.9 °C 1020.5 hPa NW 6.4 km/h 12.9 km/h 81% 0 mm
09:14 -9.2 °C -12 °C 1020.5 hPa NW 9.7 km/h 17.7 km/h 80% 0 mm
09:19 -9.2 °C -12 °C 1020.5 hPa NW 6.4 km/h 17.7 km/h 80% 0 mm
09:24 -9.2 °C -12 °C 1020.5 hPa NW 9.7 km/h 19.3 km/h 80% 0 mm
09:29 -9.1 °C -11.9 °C 1020.5 hPa NNW 6.4 km/h 19.3 km/h 80% 0 mm
09:34 -9.1 °C -11.9 °C 1020.9 hPa NNW 6.4 km/h 19.3 km/h 80% 0 mm
09:39 -9.1 °C -11.9 °C 1020.9 hPa NNW 8 km/h 16.1 km/h 80% 0 mm
09:44 -9 °C -11.8 °C 1020.9 hPa NNW 6.4 km/h 16.1 km/h 80% 0 mm
09:49 -8.9 °C -11.8 °C 1020.9 hPa NW 6.4 km/h 14.5 km/h 80% 0 mm
09:54 -8.9 °C -11.7 °C 1020.9 hPa NW 8 km/h 20.9 km/h 80% 0 mm
09:59 -8.8 °C -11.7 °C 1020.9 hPa NW 8 km/h 20.9 km/h 80% 0 mm
10:04 -8.8 °C -11.7 °C 1020.9 hPa NNW 4.8 km/h 16.1 km/h 80% 0 mm
10:09 -8.7 °C -11.6 °C 1020.9 hPa NNW 4.8 km/h 16.1 km/h 80% 0 mm
10:14 -8.7 °C -11.7 °C 1021.2 hPa NNW 12.9 km/h 25.7 km/h 79% 0 mm
10:19 -8.8 °C -11.8 °C 1021.2 hPa NW 9.7 km/h 25.7 km/h 79% 0 mm
10:24 -8.7 °C -11.6 °C 1021.2 hPa NNW 9.7 km/h 25.7 km/h 80% 0 mm
10:29 -8.7 °C -11.7 °C 1021.2 hPa NNW 6.4 km/h 17.7 km/h 79% 0 mm
10:34 -8.7 °C -11.7 °C 1021.2 hPa NW 9.7 km/h 17.7 km/h 79% 0 mm
10:39 -8.7 °C -11.7 °C 1020.9 hPa WNW 8 km/h 24.1 km/h 79% 0 mm
10:44 -8.7 °C -11.5 °C 1020.9 hPa NW 6.4 km/h 24.1 km/h 80% 0 mm
10:49 -8.6 °C -11.4 °C 1020.9 hPa NW 6.4 km/h 16.1 km/h 80% 0 mm
10:55 -8.6 °C -11.2 °C 1020.9 hPa NNW 8 km/h 20.9 km/h 81% 0 mm
10:59 -8.6 °C -11.2 °C 1020.9 hPa NW 11.3 km/h 20.9 km/h 81% 0 mm
11:04 -8.4 °C -11.1 °C 1020.9 hPa NNW 6.4 km/h 20.9 km/h 81% 0 mm
11:09 -8.3 °C -10.8 °C 1020.9 hPa NNW 3.2 km/h 19.3 km/h 82% 0 mm
11:14 -8.1 °C -10.6 °C 1020.9 hPa NNW 4.8 km/h 12.9 km/h 82% 0 mm
11:19 -8.2 °C -10.8 °C 1020.5 hPa NW 11.3 km/h 22.5 km/h 81% 0 mm
11:24 -8.3 °C -10.9 °C 1020.5 hPa WNW 8 km/h 22.5 km/h 81% 0 mm
11:29 -8.2 °C -10.7 °C 1020.5 hPa NW 6.4 km/h 19.3 km/h 82% 0 mm
11:34 -8.1 °C -10.7 °C 1020.5 hPa NW 8 km/h 16.1 km/h 82% 0 mm
11:39 -8.1 °C -10.8 °C 1020.5 hPa NW 12.9 km/h 20.9 km/h 81% 0 mm
11:44 -8.1 °C -10.8 °C 1020.5 hPa NNW 9.7 km/h 20.9 km/h 81% 0 mm
11:49 -8.1 °C -10.7 °C 1020.5 hPa NNW 8 km/h 20.9 km/h 81% 0 mm
11:54 -8.1 °C -10.9 °C 1020.5 hPa NNW 9.7 km/h 24.1 km/h 80% 0 mm
11:59 -8.1 °C -10.9 °C 1020.5 hPa NW 9.7 km/h 24.1 km/h 80% 0 mm
12:04 -8.2 °C -11 °C 1020.5 hPa NW 6.4 km/h 20.9 km/h 80% 0 mm
12:09 -8.1 °C -10.9 °C 1020.5 hPa NW 8 km/h 17.7 km/h 80% 0 mm
12:14 -8 °C -10.8 °C 1020.5 hPa NW 6.4 km/h 16.1 km/h 80% 0 mm
12:19 -8 °C -10.8 °C 1020.9 hPa NNW 6.4 km/h 17.7 km/h 80% 0 mm
12:24 -7.9 °C -10.9 °C 1020.5 hPa NW 6.4 km/h 17.7 km/h 79% 0 mm
12:29 -8.1 °C -11.2 °C 1020.5 hPa NW 9.7 km/h 19.3 km/h 78% 0 mm
12:35 -8.1 °C -11.2 °C 1020.5 hPa NW 6.4 km/h 19.3 km/h 78% 0 mm
12:44 -7.9 °C -11.1 °C 1020.5 hPa NNW 8 km/h 17.7 km/h 78% 0 mm
12:49 -7.9 °C -11.1 °C 1020.9 hPa NNW 6.4 km/h 17.7 km/h 78% 0 mm
12:54 -7.9 °C -11.2 °C 1020.9 hPa NW 6.4 km/h 14.5 km/h 77% 0 mm
12:59 -7.8 °C -11 °C 1020.9 hPa NNW 4.8 km/h 14.5 km/h 78% 0 mm
13:04 -7.8 °C -11.1 °C 1020.9 hPa NNW 6.4 km/h 12.9 km/h 77% 0 mm
13:09 -7.8 °C -11.1 °C 1020.9 hPa NNW 6.4 km/h 24.1 km/h 77% 0 mm
13:14 -7.9 °C -11.4 °C 1020.9 hPa NNW 8 km/h 24.1 km/h 76% 0 mm
13:19 -7.9 °C -11.3 °C 1020.9 hPa NNW 8 km/h 22.5 km/h 77% 0 mm
13:24 -8 °C -11.3 °C 1020.9 hPa NW 9.7 km/h 20.9 km/h 77% 0 mm
13:29 -8.1 °C -11.4 °C 1020.9 hPa NNW 6.4 km/h 16.1 km/h 77% 0 mm
13:34 -8.2 °C -11.5 °C 1021.2 hPa NNW 6.4 km/h 17.7 km/h 77% 0 mm
13:39 -8.2 °C -11.6 °C 1021.2 hPa NNW 6.4 km/h 19.3 km/h 77% 0 mm
13:44 -8.3 °C -11.8 °C 1021.2 hPa NNW 9.7 km/h 19.3 km/h 76% 0 mm
13:49 -8.3 °C -11.6 °C 1021.2 hPa NNW 6.4 km/h 19.3 km/h 77% 0 mm
13:54 -8.3 °C -11.8 °C 1021.6 hPa NW 6.4 km/h 12.9 km/h 76% 0 mm
13:59 -8.3 °C -11.8 °C 1021.6 hPa NW 6.4 km/h 11.3 km/h 76% 0 mm
14:04 -8.3 °C -11.8 °C 1021.6 hPa NNW 4.8 km/h 12.9 km/h 76% 0 mm
14:09 -8.3 °C -11.8 °C 1021.6 hPa NNW 4.8 km/h 12.9 km/h 76% 0 mm
14:14 -8.3 °C -11.8 °C 1021.6 hPa NNW 6.4 km/h 12.9 km/h 76% 0 mm
14:19 -8.3 °C -11.8 °C 1021.6 hPa NW 6.4 km/h 12.9 km/h 76% 0 mm
14:24 -8.3 °C -11.8 °C 1021.6 hPa NNW 3.2 km/h 17.7 km/h 76% 0 mm
14:30 -8.4 °C -11.9 °C 1021.9 hPa NW 8 km/h 17.7 km/h 76% 0 mm
14:39 -8.4 °C -11.8 °C 1021.9 hPa NNW 4.8 km/h 14.5 km/h 77% 0 mm
14:44 -8.4 °C -11.8 °C 1021.9 hPa NNW 4.8 km/h 16.1 km/h 77% 0 mm
14:49 -8.5 °C -11.8 °C 1021.9 hPa NNW 6.4 km/h 17.7 km/h 77% 0 mm
14:54 -8.5 °C -11.8 °C 1022.2 hPa NNW 3.2 km/h 17.7 km/h 77% 0 mm
14:59 -8.6 °C -11.9 °C 1022.2 hPa WNW 9.7 km/h 14.5 km/h 77% 0 mm
15:04 -8.6 °C -11.9 °C 1022.2 hPa NW 4.8 km/h 14.5 km/h 77% 0 mm
15:09 -8.6 °C -11.9 °C 1022.2 hPa NW 4.8 km/h 12.9 km/h 77% 0 mm
15:14 -8.6 °C -11.9 °C 1022.2 hPa NW 3.2 km/h 12.9 km/h 77% 0 mm
15:19 -8.7 °C -11.9 °C 1022.2 hPa NNW 1.6 km/h 8 km/h 77% 0 mm
15:24 -8.7 °C -11.9 °C 1022.6 hPa NNW 3.2 km/h 9.7 km/h 77% 0 mm
15:30 -8.7 °C -12 °C 1022.6 hPa NW 6.4 km/h 14.5 km/h 77% 0 mm
15:35 -8.8 °C -12.1 °C 1022.6 hPa NW 3.2 km/h 14.5 km/h 77% 0 mm
15:44 -8.9 °C -12.4 °C 1022.6 hPa NNW 6.4 km/h 17.7 km/h 76% 0 mm
15:49 -9 °C -12.3 °C 1022.6 hPa Calm   17.7 km/h 77% 0 mm
15:54 -9 °C -12.4 °C 1022.9 hPa NW 3.2 km/h 12.9 km/h 76% 0 mm
15:59 -9.1 °C -12.5 °C 1022.9 hPa NNW 1.6 km/h 16.1 km/h 76% 0 mm
16:04 -9.2 °C -12.4 °C 1022.9 hPa Calm   16.1 km/h 77% 0 mm
16:09 -9.2 °C -12.4 °C 1022.9 hPa NNW 3.2 km/h 8 km/h 77% 0 mm
16:14 -9.2 °C -12.5 °C 1022.9 hPa NNW 3.2 km/h 9.7 km/h 77% 0 mm
16:19 -9.3 °C -12.6 °C 1023.2 hPa NNW 3.2 km/h 9.7 km/h 77% 0 mm
16:24 -9.3 °C -12.6 °C 1023.2 hPa NNW 3.2 km/h 17.7 km/h 77% 0 mm
16:30 -9.4 °C -12.7 °C 1023.2 hPa NW 3.2 km/h 17.7 km/h 77% 0 mm
16:34 -9.4 °C -12.9 °C 1023.2 hPa NW 1.6 km/h 11.3 km/h 76% 0 mm
16:39 -9.4 °C -12.7 °C 1023.2 hPa Calm   8 km/h 77% 0 mm
16:44 -9.5 °C -12.8 °C 1023.6 hPa North 1.6 km/h 8 km/h 77% 0 mm
16:49 -9.6 °C -12.8 °C 1023.6 hPa NW 1.6 km/h 8 km/h 77% 0 mm
16:54 -9.6 °C -12.8 °C 1023.6 hPa North 1.6 km/h 9.7 km/h 77% 0 mm
16:59 -9.6 °C -12.7 °C 1023.9 hPa Calm   9.7 km/h 78% 0 mm
17:04 -9.6 °C -12.7 °C 1023.9 hPa Calm   4.8 km/h 78% 0 mm
17:09 -9.7 °C -12.8 °C 1023.9 hPa NNE 1.6 km/h 14.5 km/h 78% 0 mm
17:14 -9.7 °C -13 °C 1023.9 hPa NNW 3.2 km/h 14.5 km/h 77% 0 mm
17:19 -9.7 °C -13 °C 1023.9 hPa Calm   12.9 km/h 77% 0 mm
17:24 -9.8 °C -13.1 °C 1023.9 hPa NNW 1.6 km/h 8 km/h 77% 0 mm
17:29 -9.8 °C -13.1 °C 1023.9 hPa North 1.6 km/h 9.7 km/h 77% 0 mm
17:34 -9.9 °C -13.2 °C 1023.9 hPa North 1.6 km/h 9.7 km/h 77% 0 mm
17:39 -9.9 °C -13.2 °C 1024.3 hPa North 1.6 km/h 8 km/h 77% 0 mm
17:44 -9.9 °C -13.2 °C 1024.3 hPa Calm   11.3 km/h 77% 0 mm
17:49 -10 °C -13.3 °C 1024.3 hPa NNW 1.6 km/h 11.3 km/h 77% 0 mm
17:54 -10.1 °C -13.2 °C 1024.3 hPa North 1.6 km/h 14.5 km/h 78% 0 mm
17:59 -10.1 °C -13.2 °C 1024.3 hPa North 3.2 km/h 14.5 km/h 78% 0 mm
18:04 -10.2 °C -13.3 °C 1024.3 hPa North 1.6 km/h 8 km/h 78% 0 mm
18:09 -10.2 °C -13.5 °C 1024.3 hPa NNW 4.8 km/h 11.3 km/h 77% 0 mm
18:14 -10.2 °C -13.5 °C 1024.3 hPa North 3.2 km/h 11.3 km/h 77% 0 mm
18:19 -10.3 °C -13.4 °C 1024.6 hPa NNW 4.8 km/h 9.7 km/h 78% 0 mm
18:24 -10.3 °C -13.6 °C 1024.6 hPa NNW 3.2 km/h 11.3 km/h 77% 0 mm
18:29 -10.3 °C -13.6 °C 1024.6 hPa North 3.2 km/h 11.3 km/h 77% 0 mm
18:35 -10.4 °C -13.5 °C 1024.6 hPa NNW 1.6 km/h 11.3 km/h 78% 0 mm
18:44 -10.4 °C -13.6 °C 1024.6 hPa NW 3.2 km/h 9.7 km/h 78% 0 mm
18:49 -10.4 °C -13.7 °C 1024.6 hPa NNW 4.8 km/h 9.7 km/h 77% 0 mm
18:54 -10.5 °C -13.8 °C 1024.6 hPa NNW 3.2 km/h 9.7 km/h 77% 0 mm
18:59 -10.5 °C -13.8 °C 1024.6 hPa NNW 1.6 km/h 11.3 km/h 77% 0 mm
19:04 -10.6 °C -13.7 °C 1024.6 hPa North 1.6 km/h 11.3 km/h 78% 0 mm
19:09 -10.6 °C -13.7 °C 1024.6 hPa NNW 1.6 km/h 11.3 km/h 78% 0 mm
19:14 -10.6 °C -13.7 °C 1024.9 hPa Calm   11.3 km/h 78% 0 mm
19:19 -10.7 °C -13.8 °C 1024.9 hPa NNW 4.8 km/h 9.7 km/h 78% 0 mm
19:24 -10.7 °C -13.8 °C 1024.9 hPa NW 3.2 km/h 12.9 km/h 78% 0 mm
19:29 -10.7 °C -13.8 °C 1024.9 hPa NW 4.8 km/h 12.9 km/h 78% 0 mm
19:35 -10.8 °C -13.9 °C 1024.9 hPa NNW 4.8 km/h 12.9 km/h 78% 0 mm
19:39 -10.8 °C -13.9 °C 1024.9 hPa NNW 4.8 km/h 12.9 km/h 78% 0 mm
19:44 -10.8 °C -13.9 °C 1024.9 hPa NW 1.6 km/h 14.5 km/h 78% 0 mm
19:49 -10.9 °C -13.9 °C 1024.9 hPa NW 6.4 km/h 19.3 km/h 78% 0 mm
19:54 -10.9 °C -14 °C 1024.9 hPa North 1.6 km/h 19.3 km/h 78% 0 mm
19:59 -10.9 °C -14 °C 1024.9 hPa NNW 3.2 km/h 12.9 km/h 78% 0 mm
20:04 -10.9 °C -14 °C 1024.9 hPa NNW 6.4 km/h 16.1 km/h 78% 0 mm
20:09 -10.9 °C -14.2 °C 1024.9 hPa NW 4.8 km/h 16.1 km/h 77% 0 mm
20:14 -11 °C -14.2 °C 1024.9 hPa NW 1.6 km/h 12.9 km/h 77% 0 mm
20:19 -11 °C -14.2 °C 1024.9 hPa Calm   6.4 km/h 77% 0 mm
20:24 -11 °C -14.1 °C 1024.9 hPa NW 1.6 km/h 9.7 km/h 78% 0 mm
20:30 -11 °C -14.1 °C 1024.9 hPa NW 3.2 km/h 9.7 km/h 78% 0 mm
20:39 -11 °C -14.1 °C 1024.9 hPa West 1.6 km/h 11.3 km/h 78% 0 mm
20:44 -11 °C -14.1 °C 1024.9 hPa NW 1.6 km/h 6.4 km/h 78% 0 mm
20:49 -11 °C -14.1 °C 1024.9 hPa NW 3.2 km/h 6.4 km/h 78% 0 mm
20:54 -11 °C -14.1 °C 1024.9 hPa NW 3.2 km/h 8 km/h 78% 0 mm
20:59 -11 °C -14.1 °C 1024.9 hPa NW 6.4 km/h 9.7 km/h 78% 0 mm
21:04 -11 °C -13.9 °C 1024.9 hPa WNW 1.6 km/h 9.7 km/h 79% 0 mm
21:09 -11 °C -13.9 °C 1024.9 hPa WNW 4.8 km/h 11.3 km/h 79% 0 mm
21:14 -11 °C -13.9 °C 1024.9 hPa WNW 4.8 km/h 11.3 km/h 79% 0 mm
21:19 -11 °C -14.1 °C 1024.9 hPa WNW 6.4 km/h 14.5 km/h 78% 0 mm
21:24 -11 °C -14.1 °C 1024.9 hPa WNW 4.8 km/h 14.5 km/h 78% 0 mm
21:29 -11 °C -14.1 °C 1024.9 hPa Calm   9.7 km/h 78% 0 mm
21:34 -11.1 °C -14.1 °C 1024.9 hPa WNW 3.2 km/h 6.4 km/h 78% 0 mm
21:59 -11.1 °C -14.2 °C 1024.9 hPa Calm     78% 0 mm
22:04 -11.2 °C -14.2 °C 1024.9 hPa Calm     78% 0 mm
22:09 -11.2 °C -14.1 °C 1024.9 hPa Calm     79% 0 mm
22:14 -11.2 °C -14.1 °C 1024.9 hPa Calm     79% 0 mm
22:19 -11.2 °C -14.2 °C 1024.9 hPa Calm     79% 0 mm
22:24 -11.2 °C -14.1 °C 1024.9 hPa Calm     79% 0 mm
22:29 -11.2 °C -14.1 °C 1024.9 hPa Calm   4.8 km/h 79% 0 mm
22:34 -11.2 °C -14.2 °C 1024.9 hPa Calm   4.8 km/h 79% 0 mm
22:39 -11.2 °C -14.2 °C 1024.6 hPa Calm   3.2 km/h 79% 0 mm
22:44 -11.2 °C -14.1 °C 1024.9 hPa Calm   3.2 km/h 79% 0 mm
22:49 -11.2 °C -14.1 °C 1024.9 hPa Calm   3.2 km/h 79% 0 mm
22:54 -11.2 °C -14.1 °C 1024.9 hPa WNW 1.6 km/h 4.8 km/h 79% 0 mm
22:59 -11.2 °C -14.1 °C 1024.9 hPa WNW 1.6 km/h 4.8 km/h 79% 0 mm
23:04 -11.2 °C -14.1 °C 1024.9 hPa WNW 1.6 km/h 4.8 km/h 79% 0 mm
23:09 -11.2 °C -14.1 °C 1024.9 hPa Calm   4.8 km/h 79% 0 mm
23:14 -11.2 °C -14.1 °C 1024.9 hPa Calm   1.6 km/h 79% 0 mm
23:19 -11.2 °C -14 °C 1024.9 hPa Calm     80% 0 mm
23:24 -11.2 °C -14 °C 1024.9 hPa Calm     80% 0 mm
23:29 -11.3 °C -14.1 °C 1024.9 hPa Calm     80% 0 mm
23:34 -11.3 °C -14.1 °C 1024.9 hPa Calm     80% 0 mm
23:39 -11.4 °C -14.2 °C 1024.9 hPa Calm     80% 0 mm
23:44 -11.4 °C -14.1 °C 1024.9 hPa Calm     81% 0 mm
23:49 -11.4 °C -14.1 °C 1024.9 hPa Calm     81% 0 mm
23:54 -11.5 °C -14.1 °C 1024.9 hPa Calm     81% 0 mm
23:59 -11.6 °C -14.2 °C 1024.6 hPa Calm   1.6 km/h 81% 0 mm
Westford Weather
Compliments of Weather Underground

 
 
Current Radar Loop:

Copyright © WestfordWeather.net 2007-2014. All rights reserved.